AirNav   Air Wisconsin Airman Trainee
 
 270 users online  

M10 Mountainair Municipal Airport
Mountainair, New Mexico, USA

GOING TO MOUNTAINAIR?


FAA INFORMATION EFFECTIVE 23 MAY 2019

Location

FAA Identifier: M10
Lat/Long: 34-32-00.0000N / 106-13-26.0000W
34-32.000000N / 106-13.433333W
34.5333333 / -106.2238889
(estimated)
Elevation: 6492 ft. / 1979 m (estimated)
Variation: 11E (1985)
From city: 1 mile NE of MOUNTAINAIR, NM
Time zone: UTC -6 (UTC -7 during Standard Time)
Zip code: 87036

Airport Operations

Airport use: Open to the public
Activation date: 10/1964
Control tower: no
ARTCC: ALBUQUERQUE CENTER
FSS: ALBUQUERQUE FLIGHT SERVICE STATION
NOTAMs facility: ABQ (NOTAM-D service available)
Attendance: UNATNDD
Wind indicator: yes
Segmented circle: no
Lights: ACTVT HELIPORT LIGHTS, WIND SOCK - CTAF (3 CLICKS).
Beacon: ACTVT BEACON - CTAF (3 CLICKS).

Airport Communications

CTAF: 122.9

Nearby radio navigation aids

VOR radial/distance  VOR name  Freq  Var
CNXr277/28.8CORONA VORTAC115.5013E
ONMr055/31.7SOCORRO VORTAC116.8013E
OTOr191/(35.3)OTTO VOR114.0013E

Airport Services

Airframe service: NONE
Powerplant service: NONE
Bottled oxygen: NONE
Bulk oxygen: NONE

Runway Information

Helipad H1

Dimensions: 54 x 54 ft. / 16 x 16 m
Surface: concrete, in excellent condition
Runway edge lights: PERI
Traffic pattern: leftleft

Runway 8/26

Dimensions: 2578 x 50 ft. / 786 x 15 m
Surface: dirt, in fair condition
RUNWAY 8  RUNWAY 26
Traffic pattern: leftleft
Obstructions: 15 ft. road, 300 ft. from runway, 20:1 slope to clearnone

Airport Ownership and Management from official FAA records

Ownership: Publicly-owned
Owner: TOWN OF MOUNTAINAIR
PO BOX 115
MOUNTAINAIR, NM 87036
Phone 505-847-2321
Manager: DENNIS FULFER
PO BOX 115
MOUNTAINAIR, NM 87036
Phone 505-847-2321
EMERGENCY PHONE 505-384-2705.

Airport Operational Statistics

Aircraft based on the field: 2
Ultralights: 2
    
Aircraft operations: avg 50/month *
100% local general aviation
* for 12-month period ending 08 April 2018

Additional Remarks

RWY 08/26 SOFT; UNUSBL WHEN WET; +2-4 FT BERMS ON EDGES.
RWY 08/26 INFREQUENT MAINTENANCE MAY BE HAZARDOUS; RECOMMEND VISUAL INSPECTION PRIOR TO USING.
SCATTERED TREES & BRUSH ALONG RWY SIDES ARE PRIMARY SFC OBSTRUCTIONS.
ARPT ACCESS GATE LOCKED, CALL AHEAD FOR ACCESS.
RWY 08/26 IS UNMARKED & THE THLDS ARE NOT DELINEATED.

Instrument Procedures

There are no published instrument procedures at M10.

Some nearby airports with instrument procedures:

0E0 - Moriarty Municipal Airport (29 nm N)
KBRG - Belen Regional Airport (31 nm W)
KABQ - Albuquerque International Sunport Airport (36 nm NW)
KONM - Socorro Municipal Airport (46 nm SW)
KAEG - Double Eagle II Airport (46 nm NW)
 
Loc | Ops | Rwys | IFR | FBO | Links
Com | Nav | Svcs | Stats | Notes

Chandler Aviation LLC
 
Area around M10 (Mountainair Municipal Airport)
 
Road maps at: MapQuest Bing Google
 
Aerial photo
WARNING: Photo may not be current or correct
Aerial photo of M10 (Mountainair Municipal Airport)
Photo by Bart Barrack
Taken in October 2017
looking north from +/- 2500 AGL.

Do you have a better or more recent aerial photo of Mountainair Municipal Airport that you would like to share? If so, please send us your photo.

 
Sectional chart

 
Airport distance calculator
Flying to Mountainair Municipal Airport? Find the distance to fly.

From to M10

Sunrise and sunset
Times for 17-Jun-2019
 Local
(UTC-6)
 Zulu
(UTC)
Morning civil twilight05:2311:23
Sunrise05:5311:53
Sunset20:1902:19
Evening civil twilight20:4802:48

Current date and time
Zulu (UTC)  17-Jun-2019 08:39:29
Local (UTC-6)  17-Jun-2019 02:39:29
 
METAR
K0E0 
29nm N 
170815Z AUTO 34006KT 10SM -RA SCT065 SCT075 OVC090 16/13 A3017 RMK AO2 T01620127
KBRG 
31nm W 
170815Z AUTO 01004KT 10SM SCT090 SCT120 23/05 A3003 RMK AO2 T02250052
KABQ 
37nm NW 
170752Z 08015KT 10SM FEW070 BKN100 OVC140 22/08 A3003 RMK AO2 RAB02E16 SLP079 VCSH SW P0000 T02170083
KCQC 
39nm NE 
ASOS 505-472-4551
170753Z AUTO 09009KT 10SM SCT080 BKN120 13/09 A3021 RMK AO2 RAB28E37 SLP137 P0000 T01330089
KONM 
46nm SW 
170815Z AUTO 07003KT 10SM CLR 22/04 A2998 RMK AO2 T02200038
KAEG 
46nm NW 
170815Z AUTO 02008KT 10SM SCT050 BKN080 OVC110 20/08 A3008 RMK AO2 T01950075
TAF
KABQ 
37nm NW 
170521Z 1706/1806 09011KT P6SM VCSH FEW040 BKN100 TEMPO 1706/1710 09015G25KT FM171000 08011KT P6SM BKN100 FM171900 23010KT P6SM SCT100 FM172200 24015G25KT P6SM VCSH BKN100 FM180200 36013G23KT P6SM BKN100 FM180400 04006KT P6SM SCT100
NOTAMs
Click for the latest NOTAMs
NOTAMs are issued by the DoD/FAA and will open in a separate window not controlled by AirNav.

 

 
 

Would you like to see your business listed on this page?

 If your business provides an interesting product or service to pilots, flight crews, aircraft, or users of the Mountainair Municipal Airport, you should consider listing it here.  To start the listing process, click on the button below
 
Add a business
 

Other Pages about Mountainair Municipal Airport

Update a link
 
Copyright © AirNav, LLC. All rights reserved. Privacy Policy  Contact